Location: Baggettsville
(36.4767°N, 86.7303°W)
Time: 20:36:24
(UTC+00:00)

ISS - Pass Details

Date: 05 October 2021
Orbit: 417 x 423 km, 51.6° (Epoch: 23 October)

Event Time Altitude Azimuth Distance (km) Brightness Sun altitude
Rises 01:21:05 0° 307° (NW) 2,362 1.1 -23.9°
Reaches altitude 10° 01:23:13 10° 302° (WNW) 1,496 0.0 -24.4°
Enters shadow 01:25:26 35° 281° (W) 688 -2.2 -24.8°
